FENGYUN 1C DEB

Satellite information

Favourite Embed

Satellite Type and Status

DEBRISIN ORBIT

Key statistics

Satellite FENGYUN 1C DEB at a glance.

Uptime

9494

Days in orbit

Revolutions

≈ 14.1

Per day

Orbit

SSO

Sun Synchronous Orbit

Inclination

99.1

Latest

Satellite identification and parameters

Extended collection of information and parameters for FENGYUN 1C DEB.

Object identification

Identified? True

Debris? True

Object name: FENGYUN 1C DEB

International designator: 1999-025ANX

Object number (NORAD): 30640

Object ID (CCSDS): 30640

Country: PEOPLES REPUBLIC OF CHINA (PRC)

Current information (Y/N): Y

RCS size: SMALL

Orbital parameters

Period: 101.888 minutes

Inclination: 99.0684 deg

SMA: 7226.178 km

Apoapsis: 906.034 km

Periapsis: 790.052 km

RAAN: 194.5534 deg

Eccentricy: 0.0080251

Argument of periapsis: 2.6309 deg

Mean anomaly: 59.6301 deg

Mean motion: 14.13317665 rev/day

Mean motion (dot): 0.00003103 rev/day2

B* drag term: 0.0016274 1/REarth

Two-line elements (TLE)

Creation date: May 7, 2025, 3:14 a.m.

Reference frame: TEME

Reference center: EARTH

Epoch: May 6, 2025, 10:02 a.m. UTC

TLE line 0: 0 FENGYUN 1C DEB

TLE line 1: 1 30640U 99025ANX 25126.41839213 .00003103 00000-0 16274-2 0 9994

TLE line 2: 2 30640 99.0684 194.5534 0080251 2.6309 59.6301 14.13317665933329

Live tracking on map

Real-time ground track for satellite FENGYUN 1C DEB.

In-orbit conjunctions

A list of the most updated potential collisions computed for object FENGYUN 1C DEB.

Target Orbit TCA Probability of collision Miss distance Type
SUNSAT SSO 2025-01-26 02:35:28 0.0001629425 97.0 (m) PAYLOAD
METEOR 1-20 LEO 2024-12-23 07:28:37 0.0001256091 225.0 (m) PAYLOAD
METEOR 2-11 DEB LEO 2024-09-25 17:28:39 0.000571782 290.0 (m) DEBRIS
QUAKESAT SSO 2024-05-29 14:41:50 0.0001470908 911.0 (m) PAYLOAD

Associated space launch

Chinese polar orbiting meteorological satellite

FENGYUN 1C DEB was lifted into orbit during the mission ‘Long March 4B | Feng Yun 1C’, on board a Long March 4B space rocket.

The launch took place on May 10, 1999, 1:33 a.m. from Launch Complex 7.

For more information about the launch, click the button.

Launch to space Long March 4B | Feng Yun 1C
Long March 4B | Feng Yun 1C

Agency: N/A

Status: Launch Successful

Launch date: May 10, 1999, 1:33 a.m. UTC

Rocket: Long March 4B

Launch pad: Launch Complex 7

Location: Taiyuan Satellite Launch Center, People's Republic of China

...

Latest news about this satellite

There are no fresh news available about this satellite. Check back as we update our databases every day.


Newsletter sign-up

Weekly statistics, charts and insights to help you stay on top of the space industry.